www.pogodaiklimat.ru
ПОГОДА в Юливиеске
Время
(UTC), дата
07 30.11
08 30.11
09 30.11
10 30.11
11 30.11
12 30.11
13 30.11
14 30.11
15 30.11
16 30.11
17 30.11
18 30.11
19 30.11
20 30.11
21 30.11
22 30.11
23 30.11
00 1.12
01 1.12
02 1.12
03 1.12
04 1.12
05 1.12
06 1.12
07 1.12
08 1.12
09 1.12
10 1.12
11 1.12
12 1.12
13 1.12
14 1.12
15 1.12
16 1.12
17 1.12
18 1.12
19 1.12
20 1.12
21 1.12
22 1.12
23 1.12
00 2.12
01 2.12
02 2.12
03 2.12
04 2.12
05 2.12
06 2.12
07 2.12
08 2.12
09 2.12
10 2.12
11 2.12
12 2.12
13 2.12
14 2.12
15 2.12
16 2.12
17 2.12
18 2.12
19 2.12
20 2.12
21 2.12
22 2.12
23 2.12
00 3.12
01 3.12
02 3.12
03 3.12
04 3.12
05 3.12
06 3.12
07 3.12
08 3.12
09 3.12
10 3.12
11 3.12
12 3.12
13 3.12
14 3.12
15 3.12
16 3.12
17 3.12
19 3.12
20 3.12
21 3.12
22 3.12
23 3.12
00 4.12
01 4.12
02 4.12
03 4.12
04 4.12
05 4.12
06 4.12
07 4.12
08 4.12
09 4.12
10 4.12
11 4.12
12 4.12
13 4.12
14 4.12
15 4.12
16 4.12
17 4.12
18 4.12
19 4.12
20 4.12
21 4.12
22 4.12
23 4.12
00 5.12
01 5.12
02 5.12
03 5.12
04 5.12
05 5.12
06 5.12
07 5.12
08 5.12
09 5.12
10 5.12
11 5.12
12 5.12
13 5.12
14 5.12
15 5.12
16 5.12
17 5.12
18 5.12
19 5.12
20 5.12
21 5.12
22 5.12
23 5.12
00 6.12
01 6.12
02 6.12
03 6.12
04 6.12
05 6.12
06 6.12
07 6.12
08 6.12
09 6.12
10 6.12
11 6.12
12 6.12
13 6.12
14 6.12
15 6.12
16 6.12
17 6.12
18 6.12
19 6.12
20 6.12
21 6.12
22 6.12
23 6.12
00 7.12
01 7.12
02 7.12
03 7.12
04 7.12
05 7.12
06 7.12
07 7.12
08 7.12
Ветер
(напр.,м/с)
Видим. Явления Облачность Т
(С)
Тd
(С)
f
(%)
Тe
(С)
Тes
(С)
Комфортность P
(гПа)
Po
(гПа)
Тmin
(С)
Tmax
(С)
R
(мм)
R24
(мм)
S
(см)
З 3-5
{5}
50 км слаб. ливневой снег 9/9 600 м
[]
-3.4 -4.6 91 -9 -9 очень
холодно
994.1 984.4
З 3-5
{5}
21 км слаб. снег 9/9 600 м
[]
-3.2 -4.4 91 -9 -9 очень
холодно
994.9 985.2
З 5-8
{8}
13 км слаб. снег 9/9 600 м
[]
-3.0 -4.1 92 -10 -10 очень
холодно
995.7 986.0 0.1
СЗ 4-5
{8}
4300 м слаб. снег 9/9 200 м
[]
-3.1 -3.9 94 -9 -9 очень
холодно
996.4 986.7 0.1
З 4-5
{7}
45 км слаб. снег 9/6 1500 м
[]
-3.4 -4.5 92 -10 -10 очень
холодно
997.1 987.4 0.1
З 3-5
{5}
45 км {ливн. осадки, снег} 4/0 600 м
[]
-4.2 -5.9 88 -10 -10 очень
холодно
997.6 987.8
З 3-4
{5}
45 км 1/0 1000 м
[]
-5.8 -7.2 90 -11 -11 очень
холодно
998.3 988.4
З 4-5
{5}
45 км ясно -6.5 -8.2 88 -13 -13 очень
холодно
999.0 989.1
З 3-4
{5}
45 км 1/0 1000 м
[]
-7.6 -9.3 88 -13 -13 очень
холодно
999.5 989.6
З 4-5
{5}
50 км ясно -8.4 -9.8 90 -15 -15 очень
холодно
1000.0 990.0
З 3-3
{4}
50 км ясно -9.1 -10.4 90 -15 -15 очень
холодно
1000.4 990.5
ЮЗ 3-3
{4}
50 км ясно -9.1 -10.1 92 -15 -15 очень
холодно
1000.5 990.5 -9.5 -3.0
З 3-5
{5}
50 км ясно -8.4 -9.7 90 -14 -14 очень
холодно
1000.3 990.3
З 3-5
{5}
50 км ясно -7.6 -9.1 89 -13 -13 очень
холодно
1000.1 990.1
З 4-7
{7}
4100 м слаб. ливневой снег 6/4 100 м
[]
-6.0 -7.3 90 -13 -13 очень
холодно
999.6 989.8
З 3-5
{7}
50 км в посл. час снег 6/6 600 м
[]
-6.2 -7.6 90 -12 -12 очень
холодно
999.4 989.5
ЮЗ 4-6
{7}
50 км 9/1 1000 м
[]
-6.1 -7.5 90 -13 -13 очень
холодно
998.9 989.0
ЮЗ 4-6
{8}
50 км {ливн. осадки, снег} 9/1 600 м
[]
-5.5 -7.1 88 -12 -12 очень
холодно
998.7 988.8
ЮЗ 4-6
{7}
50 км 9/0 1500 м
[]
-5.0 -6.7 88 -11 -11 очень
холодно
998.4 988.6
ЮЗ 4-6
{8}
1600 м слаб. снег ?/? -4.7 -5.7 93 -11 -11 очень
холодно
997.1 987.3 0.1
ЮЗ 4-7
{7}
2900 м слаб. снег {туман} 9/9 200 м
[]
-4.4 -5.4 93 -11 -11 очень
холодно
996.5 986.8 1
З 3-4
{7}
50 км в посл. час зёрна 9/9 300 м
[]
-3.9 -5.0 92 -9 -9 очень
холодно
996.2 986.4
З 4-6
{6}
50 км слаб. ливневой снег 9/4 300 м
[]
-3.7 -4.9 91 -10 -10 очень
холодно
996.2 986.4
З 6-10
{10}
29 км слаб. ливневой снег 6/6 1000 м
[]
-3.9 -6.2 84 -11 -11 очень
холодно
996.4 986.6 -9.1 -3.6 20
ЮЗ 3-4
{11}
50 км в посл. час снег 1/0 1000 м
[]
-5.7 -7.1 90 -11 -11 очень
холодно
996.2 986.4 0.1
ЮЗ 3-5
{5}
50 км 9/9 1000 м
[]
-5.0 -6.9 86 -11 -11 очень
холодно
996.3 986.5
ЮЗ 4-6
{6}
50 км {ливн. осадки} ясно -5.0 -6.6 89 -11 -11 очень
холодно
995.6 985.9
ЮЗ 3-5
{6}
50 км 1/0 1000 м
[]
-5.7 -7.0 91 -11 -11 очень
холодно
995.3 985.5
ЮЗ 2-4
{5}
50 км 1/0 600 м
[]
-6.1 -7.2 92 -11 -10 очень
холодно
995.1 985.3
ЮЗ 3-4
{5}
50 км {ливн. осадки} 1/0 600 м
[]
-5.4 -6.6 91 -11 -11 очень
холодно
994.6 984.8
ЮЗ 4-6
{6}
50 км ясно -5.4 -6.9 89 -12 -12 очень
холодно
994.4 984.6
ЮЗ 4-7
{7}
50 км ясно -5.4 -7.1 88 -12 -12 очень
холодно
994.2 984.4
ЮЗ 4-6
{6}
50 км 9/9 600 м
[]
-5.2 -6.8 88 -12 -12 очень
холодно
994.2 984.4
ЮЗ 4-6
{7}
50 км 9/9 600 м
[]
-4.7 -6.3 89 -11 -11 очень
холодно
994.1 984.4
ЮЗ 5-7
{7}
50 км 4/0 600 м
[]
-4.6 -6.3 88 -12 -12 очень
холодно
993.9 984.2
ЮЗ 5-8
{8}
50 км 9/9 600 м
[]
-3.7 -5.4 88 -11 -11 очень
холодно
993.5 983.8 -6.2 -3.7
ЮЗ 5-7
{10}
50 км 9/6 600 м
[]
-3.3 -4.9 89 -10 -10 очень
холодно
993.4 983.8
З 4-6
{8}
50 км 6/6 600 м
[]
-2.6 -4.4 87 -9 -9 очень
холодно
993.4 983.7
З 5-7
{8}
50 км 9/6 600 м
[]
-2.7 -4.3 89 -9 -9 очень
холодно
993.3 983.7
ЮЗ 4-6
{7}
50 км 6/1 600 м
[]
-3.5 -5.0 89 -10 -10 очень
холодно
993.3 983.6
З 3-5
{7}
45 км 9/1 600 м
[]
-3.9 -5.3 90 -9 -9 очень
холодно
993.2 983.5
З 4-6
{6}
45 км 9/9
[]
-4.0 -5.4 90 -10 -10 очень
холодно
993.3 983.5
З 4-6
{6}
50 км 9/6
[]
-3.7 -5.2 89 -10 -10 очень
холодно
993.2 983.5
З 4-7
{7}
50 км 9/0
[]
-3.4 -4.9 89 -10 -10 очень
холодно
993.3 983.6
З 3-5
{6}
50 км 9/4 600 м
[]
-3.5 -5.0 89 -9 -9 очень
холодно
993.6 983.9
З 3-5
{6}
50 км 9/9 1000 м
[]
-3.2 -4.8 89 -9 -9 очень
холодно
993.8 984.1
З 3-4
{6}
11 км слаб. снег 10/10 600 м
[]
-3.1 -4.2 92 -8 -8 очень
холодно
994.0 984.3
З 3-4
{5}
50 км в посл. час снег {ливн. осадки} 4/4 1000 м
[]
-3.3 -4.8 89 -9 -9 очень
холодно
994.4 984.7 -4.1 -2.1 19
З 3-5
{5}
45 км 9/9 1000 м
[]
-3.5 -5.0 89 -9 -9 очень
холодно
994.8 985.1
З 3-4
{5}
9000 м слаб. снег 9/9 600 м
[]
-3.4 -4.7 91 -9 -9 очень
холодно
995.6 985.9
З 3-4
{4}
50 км {ливн. осадки, снег} 1/0 1000 м
[]
-4.8 -5.7 93 -10 -10 очень
холодно
996.2 986.4
З 3-4
{4}
50 км ясно -4.7 -5.8 92 -10 -10 очень
холодно
996.4 986.7
З 3-5
{5}
50 км ясно -4.6 -6.1 89 -10 -10 очень
холодно
996.8 987.0
З 3-4
{5}
50 км {ливн. осадки, снег} ясно -5.0 -6.2 91 -11 -11 очень
холодно
997.1 987.3
З 3-5
{5}
45 км ясно -5.5 -6.5 93 -11 -11 очень
холодно
997.6 987.8
З 3-4
{5}
50 км 6/0
[]
-5.3 -6.2 93 -11 -11 очень
холодно
998.1 988.3
З 4-5
{5}
50 км 9/6
[]
-4.4 -5.6 91 -11 -11 очень
холодно
998.5 988.7
З 3-4
{6}
45 км 10/10
[]
-3.7 -5.1 90 -9 -9 очень
холодно
999.0 989.2
З 4-5
{5}
50 км 9/6 1000 м
[]
-3.8 -5.1 91 -10 -10 очень
холодно
999.7 989.9
З 4-5
{5}
50 км ясно -4.1 -5.4 91 -10 -10 очень
холодно
1000.0 990.3 -5.5 -3.3
З 4-5
{5}
50 км ясно -4.5 -5.7 91 -11 -11 очень
холодно
1000.6 990.8
З 3-4
{6}
45 км ясно -4.9 -6.1 91 -10 -10 очень
холодно
1000.9 991.1
З 3-4
{5}
50 км ясно -5.7 -6.7 93 -11 -11 очень
холодно
1001.4 991.5
З 3-4
{4}
45 км ясно -5.6 -6.6 93 -11 -11 очень
холодно
1001.9 992.0
З 3-4
{5}
50 км ясно -5.6 -6.8 91 -11 -11 очень
холодно
1002.5 992.7
З 3-4
{5}
50 км ясно -6.1 -7.2 92 -12 -12 очень
холодно
1003.1 993.2
З 3-3
{4}
50 км ясно -7.0 -7.9 93 -13 -13 очень
холодно
1003.6 993.7
З 3-4
{4}
45 км 4/1 1500 м
[]
-7.0 -7.7 95 -13 -13 очень
холодно
1003.5 993.6
З 4-5
{5}
50 км 4/0
[]
-6.5 -7.3 94 -13 -13 очень
холодно
1003.7 993.8
З 4-4
{5}
50 км 9/0
[]
-6.5 -7.2 95 -13 -13 очень
холодно
1003.8 993.9
З 3-4
{4}
50 км 9/0
[]
-6.3 -7.2 93 -12 -12 очень
холодно
1003.7 993.8
З 3-4
{4}
50 км ясно -6.3 -7.1 94 -12 -12 очень
холодно
1003.6 993.7 -7.1 -4.1 17
З 2-3
{4}
50 км ясно -9.5 -11.1 88 -14 -14 очень
холодно
1003.9 993.9
ЮЗ 2-3
{3}
45 км ясно -11.4 -12.2 94 -16 -16 очень
холодно
1004.0 993.9
ЮЗ 3-4
{4}
45 км ясно -6.3 -6.8 96 -12 -12 очень
холодно
1003.5 993.6
ЮЗ 3-4
{4}
40 км 6/0
[]
-5.8 -6.6 94 -12 -12 очень
холодно
1003.4 993.5
Ю 2-3
{4}
35 км 4/0
[]
-5.8 -6.6 94 -10 -10 очень
холодно
1002.8 992.9
Ю 1-2
{3}
40 км 9/0
[]
-6.4 -7.4 93 -9 -9 очень
холодно
1002.4 992.5
Ю 2-3
{3}
40 км 9/9
[]
-6.8 -7.5 95 -11 -11 очень
холодно
1001.5 991.6
Ю 3-5
{5}
45 км 10/10
[]
-4.4 -5.2 94 -10 -10 очень
холодно
1000.9 991.1
Ю 3-4
{5}
45 км 10/6 1000 м
[]
-4.0 -4.9 93 -9 -9 очень
холодно
999.9 990.1
ЮВ 3-4
{5}
1700 м слаб. снег 10/10 100 м
[]
-4.3 -5.0 95 -10 -10 очень
холодно
998.6 988.8 0.3
Ю 3-4
{5}
1800 м слаб. снег 10/10 100 м
[]
-3.1 -3.7 96 -9 -9 очень
холодно
997.6 987.9 0.6
ЮЗ 4-6
{7}
4600 м слаб. снег 10/10 100 м
[]
-1.1 -1.6 96 -7 -7 холодно 995.6 985.9 0.5
ЮЗ 5-7
{8}
3100 м в посл. час осадки 10/10 100 м
[]
-0.2 -0.5 98 -7 -7 холодно 995.2 985.6 0.2
ЮЗ 4-7
{7}
2400 м дымка 10/10 50 м
[]
+0.2 -0.1 98 -5 -5 холодно 994.9 985.3 0.1
ЮЗ 5-8
{8}
7000 м дымка 10/10 100 м
[]
+0.4 0.0 97 -6 -6 холодно 994.2 984.7 0.1
ЮЗ 4-6
{8}
3100 м дымка 10/10 100 м
[]
+0.4 +0.1 98 -5 -5 холодно 993.9 984.4
ЮЗ 4-7
{7}
3400 м дымка 10/0 50 м
[]
+0.4 +0.2 99 -5 -5 холодно 993.1 983.5
ЮЗ 5-6
{8}
3300 м дымка 10/0 50 м
[]
+0.5 +0.3 99 -6 -6 холодно 993.0 983.4
ЮЗ 3-5
{7}
8000 м слаб. ледяной дождь 10/10 50 м
[]
+0.5 +0.4 99 -4 -4 прохладно 992.3 982.7 0.3
ЮЗ 3-6
{6}
10 км слаб. дождь 10/10 100 м
[]
+0.9 +0.6 98 -4 -4 прохладно 991.6 982.1 0.8
З 4-6
{7}
2900 м сильн. морось 10/10 50 м
[]
+1.2 +1.0 99 -4 -4 прохладно 991.3 981.8 0.4
З 3-5
{7}
5000 м в посл. час морось 10/10 50 м
[]
+1.6 +1.4 99 -3 -3 прохладно 991.4 981.9 0.4
З 3-6
{6}
50 км в посл. час дождь 10/10 600 м
[]
+2.2 +2.0 99 -2 -2 по сезону 991.8 982.3 -1.6 +2.2 0.2 <0.5
З 4-6
{6}
50 км 9/0 1000 м
[]
+2.5 +2.1 97 -3 -3 прохладно 992.5 983.0
З 4-6
{7}
50 км ясно +3.0 +2.4 96 -2 -2 по сезону 992.6 983.2
З 4-6
{8}
н/о ясно +3.7 +2.5 92 -1 -1 по сезону 993.1 983.6
З 5-8
{8}
50 км 4/0
[]
+3.7 +2.3 91 -2 -2 по сезону 993.6 984.1
З 4-6
{8}
50 км 6/1
[]
+3.8 +2.4 91 -1 -1 по сезону 993.8 984.3
З 4-6
{7}
50 км 1/0
[]
+3.8 +2.4 91 -1 -1 по сезону 994.4 985.0
З 4-7
{7}
50 км 6/0
[]
+3.7 +2.2 90 -1 -1 по сезону 995.2 985.7
З 3-5
{7}
50 км 1/0
[]
+3.3 +2.0 91 -1 -1 по сезону 995.1 985.6
З 4-6
{6}
50 км 1/0
[]
+3.3 +2.1 92 -1 -1 по сезону 995.5 986.0
ЮЗ 3-5
{6}
50 км ясно +2.7 +1.7 93 -2 -2 по сезону 996.1 986.5
ЮЗ 3-5
{6}
50 км ясно +2.7 +1.7 93 -2 -2 по сезону 996.1 986.6
ЮЗ 3-5
{5}
50 км 4/4
[]
+2.3 +1.7 96 -2 -2 по сезону 996.3 986.8 +1.8 +4.1
ЮЗ 3-5
{5}
50 км 9/0
[]
+3.0 +1.7 91 -1 -1 по сезону 996.2 986.7
ЮЗ 3-4
{6}
45 км 10/1
[]
+2.7 +1.6 92 -2 -2 по сезону 995.9 986.3
ЮЗ 3-5
{6}
40 км 9/9 2000 м
[]
+3.0 +1.7 91 -1 -1 по сезону 995.5 986.0
ЮЗ 4-6
{6}
35 км 10/10
[]
+3.3 +1.7 89 -1 -1 по сезону 994.7 985.3
Ю 3-4
{7}
35 км 6/6
[]
+2.5 +1.3 92 -2 -2 по сезону 993.2 983.7
ЮВ 3-4
{6}
35 км 10/10 2000 м
[]
+2.1 +1.1 93 -2 -2 по сезону 991.7 982.2
Ю 3-4
{4}
50 км 9/0 2000 м
[]
+3.0 +1.5 90 -1 -1 по сезону 990.8 981.4
ЮЗ 5-9
{9}
50 км 9/9 300 м
[]
+3.1 +1.2 87 -2 -2 по сезону 989.9 980.5
ЮЗ 5-8
{9}
50 км 9/0 300 м
[]
+2.8 +1.1 89 -3 -3 прохладно 989.1 979.6
ЮЗ 6-8
{10}
50 км 9/0 300 м
[]
+3.1 +1.1 87 -3 -3 прохладно 988.9 979.5
ЮЗ 4-7
{10}
50 км 9/6 300 м
[]
+2.7 +0.9 88 -2 -2 по сезону 988.8 979.4
ЮЗ 5-9
{9}
50 км 9/9 300 м
[]
+2.6 +0.8 88 -3 -3 прохладно 989.1 979.7 +2.1 +3.6 <0.5
ЮЗ 5-10
{10}
50 км 6/1 1500 м
[]
+2.4 +0.6 88 -3 -3 прохладно 989.0 979.6
ЮЗ 4-6
{9}
50 км ясно +1.9 +0.4 90 -3 -3 прохладно 989.0 979.5
ЮЗ 4-7
{7}
50 км 1/0
[]
+1.9 +0.1 88 -3 -3 прохладно 988.6 979.1
ЮЗ 4-6
{8}
50 км 9/9
[]
+2.2 +0.5 89 -3 -3 прохладно 988.3 978.9
ЮЗ 4-6
{7}
50 км 9/6 1500 м
[]
+2.3 +0.6 89 -3 -3 прохладно 987.4 977.9
Ю 4-6
{7}
45 км 6/1 200 м
[]
+1.8 +0.4 90 -3 -3 прохладно 986.3 976.9
ЮЗ 5-7
{8}
50 км 9/9 200 м
[]
+2.2 +0.7 90 -3 -3 прохладно 985.4 976.0
ЮЗ 5-9
{9}
50 км 9/0 300 м
[]
+2.2 +0.5 89 -3 -3 прохладно 984.4 975.0
ЮЗ 5-8
{10}
50 км 9/9 300 м
[]
+2.5 +0.4 86 -3 -3 прохладно 983.5 974.1
ЮЗ 6-10
{10}
50 км 9/0 300 м
[]
+2.7 +0.2 84 -3 -3 прохладно 982.9 973.5
ЮЗ 4-7
{8}
50 км 9/9 300 м
[]
+2.7 +0.2 84 -2 -2 по сезону 982.5 973.1
ЮЗ 5-8
{9}
50 км 9/9 300 м
[]
+2.6 +0.2 84 -3 -3 прохладно 981.6 972.2 +1.6 +2.9
ЮЗ 7-11
{12}
50 км 9/6 300 м
[]
+2.8 +0.3 84 -3 -3 прохладно 981.1 971.8
ЮЗ 7-12
{12}
24 км слаб. дождь 9/4 300 м
[]
+2.4 +0.5 87 -4 -4 прохладно 981.2 971.8
ЮЗ 5-8
{11}
40 км в посл. час дождь со снегом {ливн. осадки} 9/1 1500 м
[]
+2.1 +0.7 90 -4 -4 прохладно 981.0 971.6 0.2
ЮЗ 6-10
{10}
50 км в посл. час осадки ясно +2.1 +0.2 87 -4 -4 прохладно 981.0 971.6
ЮЗ 5-9
{10}
50 км ясно +1.7 -0.7 84 -4 -4 прохладно 981.2 971.8
ЮЗ 5-9
{9}
50 км {ливн. осадки, дождь} 4/0
[]
+1.2 -1.4 83 -5 -5 холодно 981.6 972.2
ЮЗ 5-8
{8}
50 км ясно +0.8 -1.5 85 -5 -5 холодно 981.8 972.4
ЮЗ 6-9
{9}
50 км ясно +0.5 -1.5 86 -6 -6 холодно 981.8 972.3
ЮЗ 4-9
{9}
50 км ясно +0.4 -1.9 85 -5 -5 холодно 981.7 972.2
ЮЗ 3-6
{7}
50 км ясно -0.3 -2.1 88 -5 -5 холодно 981.6 972.2
Ю 3-5
{6}
50 км ясно -1.1 -2.4 91 -6 -6 холодно 981.5 972.0
Ю 3-4
{5}
45 км ясно -1.5 -2.3 94 -7 -7 холодно 981.6 972.1 -1.5 +2.8 <0.5
Ю 3-5
{5}
29 км ясно -2.2 -2.7 96 -7 -7 холодно 982.0 972.5
Ю 3-4
{6}
24 км 9/9 50 м
[]
-0.7 -1.0 98 -6 -6 холодно 982.1 972.6
Ю 3-5
{5}
23 км 10/0 100 м
[]
-0.4 -0.8 97 -5 -5 холодно 982.2 972.7
Ю 3-4
{5}
5000 м дымка 10/10 50 м
[]
-0.7 -1.0 98 -6 -6 холодно 982.0 972.5
Ю 2-4
{5}
800 м туман ?/? -0.9 -1.1 99 -5 -5 холодно 982.0 972.5
Ю 3-5
{5}
1300 м в посл. час зёрна {метель} 10/0 50 м
[]
-1.0 -1.2 99 -6 -6 холодно 982.1 972.6
Ю 1-3
{5}
300 м туман ?/? -0.4 -0.5 99 -3 -3 прохладно 982.0 972.5
Ю 2-2
{2}
200 м туман ?/? -0.1 -0.2 99 -4 -4 прохладно 982.0 972.5
ЮЗ 2-3
{4}
400 м пыльная буря {метель} ?/? +0.4 +0.3 99 -3 -3 прохладно 982.2 972.7
ЮЗ 3-5
{5}
1300 м в посл. час туман 10/0 50 м
[]
+0.7 +0.7 100 -4 -4 прохладно 982.6 973.2
ЮЗ 2-2
{4}
700 м туман ?/? +0.8 +0.7 99 -3 -3 прохладно 982.9 973.4
ЮЗ 2-3
{5}
1100 м в посл. час морось 10/0 50 м
[]
+0.9 +0.8 99 -3 -3 прохладно 983.1 973.7 -2.2 +1.0
Ю 3-4
{4}
4100 м дымка 10/10 50 м
[]
+0.9 +0.8 99 -4 -4 прохладно 983.4 974.0
Ю 2-3
{4}
11 км в посл. час морось 10/0 50 м
[]
+0.8 +0.8 100 -3 -3 прохладно 983.6 974.2
Ю 2-3
{4}
12 км {ливн. осадки, дождь} 9/9 50 м
[]
+0.4 +0.4 100 -3 -3 прохладно 983.8 974.3
ЮЗ 4-5
{5}
30 км 10/10 50 м
[]
+0.7 +0.6 99 -5 -5 холодно 984.3 974.8
ЮЗ 4-5
{5}
50 км 10/10 100 м
[]
+0.9 +0.7 99 -5 -5 холодно 984.8 975.3
ЮЗ 3-4
{7}
50 км {ливн. осадки, дождь} 9/9 200 м
[]
+0.8 +0.1 95 -4 -4 прохладно 984.9 975.5
ЮЗ 3-5
{6}
50 км 10/10 200 м
[]
+0.5 -0.4 94 -4 -4 прохладно 985.3 975.8
Ю 3-4
{6}
50 км 9/9 200 м
[]
+0.5 -0.4 94 -4 -4 прохладно 985.2 975.7
Ю 3-4
{6}
35 км 6/1 200 м
[]
-0.7 -1.2 96 -6 -6 холодно 985.2 975.7
Ю 2-4
{5}
40 км ясно -1.2 -1.6 97 -5 -5 холодно 985.4 975.9
Ю 4-5
{5}
50 км 1/0
[]
-1.5 -2.0 96 -7 -7 холодно 985.1 975.5
Ю 3-3
{5}
40 км 4/0
[]
-2.5 -2.9 97 -8 -8 очень
холодно
985.3 975.7 -2.5 +1.0 <0.5
Ю 4-5
{6}
35 км 1/0
[]
-2.5 -2.8 98 -9 -9 очень
холодно
985.4 975.8
Ю 4-6
{6}
19 км 10/0 50 м
[]
-1.2 -1.5 98 -7 -7 холодно 985.6 976.0
Местоположение метеостанции Юливиеска (Финляндия): широта 64.05 долгота 24.72 высота над уровнем моря 76 м.
В архиве по умолчанию представлена погода в Юливиеске за последнюю неделю. Архивные данные за месяц целиком и за предыдущие месяцы, начиная с января 2011 года, Вы можете получить, выбрав интересующий диапазон дат из раскрывающегося списка и нажав кнопку "Найти!".
*Определитесь, кто Вы:
Внимание! Время в таблицах - всемирное. Для получения местного времени необходимо прибавить поправку, которая равна 1 ч.
Смотрите также архив погоды в соседних городах и на ближайших метеорологических станциях:
Партнеры нашего сайта:      
Пояснения к столбцам:
  • Ветер - указаны скорость ветра в м/с - средняя за 10 мин, порывы в срок и между сроками (в фигурных скобках) и направление, откуда дует ветер: С - северный,
  • СВ - северо-восточный, В - восточный, ЮВ - юго-восточный, Ю - южный, ЮЗ - юго-западный, З - западный, СЗ - северо-западный.
  • Видимость - горизонтальная дальность видимости в метрах или километрах. При видимости от 1 до 10 км при отсутствии осадков обычно наблюдается дымка, при ухудшении видимости до 1 км и менее - туман. В сухую погоду видимость может ухудшаться дымом, пылью или мглою.
  • Явления - указаны атмосферные явления, наблюдавшиеся в срок или в последний час перед сроком; фигурными скобками обозначены явления, наблюдавшиеся между сроками (за 1-3 часа до срока); квадратными скобками обозначены град или гололедные отложения с указанием их диаметра в мм.
  • Облачность - указаны через наклонную черту общая и нижняя облачность в баллах и высота нижней границы облаков в метрах; квадратными скобками обозначены формы облаков: Ci - перистые, Cs - перисто-слоистые, Cc - перисто-кучевые, Ac - высококучевые, As - высокослоистые, Sc - слоисто-кучевые, Ns - слоисто-дождевые, Cu - кучевые, Cb - кучево-дождевые. Подробнее классификацию облаков см. в Атласе облаков (PDF).
  • T - Температура воздуха - температура, измеренная на высоте 2 м над землей.
  • Td - Температура точки росы - температура, при понижении до которой содержащийся в воздухе водяной пар достигнет насыщения.
  • f - Относительная влажность воздуха - влажноcть воздуха, измеренная на высоте 2 м над землей.
  • Te - Эффективная температура - температура, которую ощущает одетый по сезону человек в тени. Характеристика душности погоды. При расчете учитывается влияние влажности воздуха и скорости ветра на теплоощущения человека.
  • Tes - Эффективная температура на солнце - температура, которую ощущает человек, с поправкой на солнечный нагрев. Характеристика знойности погоды. Зависит от высоты солнца над горизонтом, облачности и скорости ветра. Ночью, в пасмурную погоду, а также при ветре 12 м/с и более поправка равна нулю.
  • P - Атмосферное давление - приведенное к уровню моря атмосферное давление.
  • Po - Атмосферное давление - измеренное на уровне метеостанции атмосферное давление.
  • Tmin - Минимальная температура - минимум температуры воздуха на высоте 2 м над землей.
  • Tmax - Максимальная температура - максимум температуры воздуха на высоте 2 м над землей.
  • R - Количество осадков - Количество выпавших осадков за период времени, мм. При наведении курсора мыши на число - период времени, за который выпало указанное количество осадков.
  • R24 - Количество осадков - Количество выпавших осадков за 24 часа, мм.
  • S - Снежный покров - Высота снежного покрова, см. При наведении курсора мыши на число - состояние снежного покрова и степень покрытия местности в баллах.